Nigcomsat 1R

operational
NORAD ID: 38014 Int'l Des: 2011-077 Owner: NGCOM Country: NG
HEOCIRCULARGSOGEO

Nigcomsat 1Rについて

説明を読み込み中...

リアルタイム位置

3D地球を読み込み中...

次回通過

高度履歴

Altitude vs Time

uPlot chart will show altitude changes over time

軌道要素

1 38014U 11077A 25350.77899759 .00000169 00000-0 00000-0 0 9994
2 38014 0.0520 129.6989 0003537 173.5601 105.3535 1.00273900 51123
Epoch: Dec 16, 2025 • Age: 16 hours

現在のステータス

高度 35771.1 km
速度 3.08 km/s
衛星直下点 -0.02°S, 42.5°E
打ち上げ日 Dec 19, 2011
運用期間 13.9 years
タイプ other

技術仕様

分類 Payload
質量 5086.00 kg
乾燥質量 2500.00 kg
総質量 5086.00 kg
長さ 5.00 m
直径 2.50 m
スパン 30.00 m
形状 Box + 2 Pan
製造者 CAST
バスタイプ DFH-4
フェーズステータス In Orbit
所有者/国 NGCOM/NG

大規模コンステレーション

Loading constellations...